Wind_Speed
8 9 9 9 9 8 8 9 9 10 10 10 10 10 10 11 12 13 13 13 12 11 11 11 10 10 9 7 6 6 6 6 6 6 6 6 5 4 4 4 4 5 5
7 7 8 8 7 7 7 7 7 8 8 8 8 8 8 9 10 10 11 10 10 9 8 8 8 9 8 8 6 5 5 4 4 4 5 5 5 4 3 2 2 3 3
5 6 6 6 5 5 5 5 6 6 6 6 6 6 7 7 8 8 8 8 8 7 6 6 6 6 7 7 7 5 4 3 3 3 3 3 3 3 2 2 2 2 2
4 4 5 4 4 4 4 5 5 6 6 6 6 6 5 6 6 6 6 6 6 6 5 4 4 4 4 5 6 6 4 3 2 2 2 1 1 1 2 2 2 3 3
3 3 4 4 4 5 5 6 6 6 6 6 6 6 5 5 5 5 5 5 5 5 5 4 3 2 2 3 3 4 4 3 2 1 1 1 1 2 2 3 4 4 4
3 3 4 5 5 6 6 7 7 7 7 7 7 6 6 5 5 5 5 4 4 5 5 5 4 3 3 3 2 2 2 2 1 1 1 1 2 2 3 4 5 6 5
3 4 4 5 6 6 7 7 7 7 7 7 7 7 7 7 7 7 6 6 5 5 5 5 5 5 5 5 5 4 4 3 2 1 2 2 3 3 4 5 5 6 6
4 5 5 6 6 7 8 8 8 8 9 9 9 9 9 9 9 9 9 8 8 7 7 7 7 7 7 7 8 8 7 7 6 5 4 4 4 4 4 5 6 6 5
6 7 7 8 8 8 9 9 10 10 11 11 12 12 12 12 12 12 12 11 11 10 10 10 10 10 10 10 10 10 10 10 10 9 8 8 7 7 6 5 6 6 6
9 10 11 12 12 12 12 13 13 13 14 15 15 15 16 16 16 16 16 15 15 14 14 14 13 13 13 13 13 13 13 14 14 13 13 12 11 10 9 8 7 7 7
13 14 15 16 17 18 18 18 18 18 18 19 19 20 20 20 20 20 20 20 19 19 18 18 18 17 17 17 17 16 16 16 17 17 16 16 15 14 12 11 10 9 9
17 18 19 20 21 22 22 22 22 22 23 23 24 24 24 25 25 25 24 24 24 23 23 23 22 22 21 21 21 21 20 20 20 20 19 19 18 18 16 15 14 13 12
20 21 22 23 24 24 24 25 25 25 26 26 27 28 28 29 29 29 29 29 29 28 28 27 27 26 26 25 25 25 25 24 24 24 23 22 22 21 20 19 18 17 16
23 23 24 24 25 25 26 26 26 26 27 28 29 30 30 31 32 32 33 33 33 33 33 33 32 31 31 30 30 30 30 29 29 28 27 26 26 25 24 23 22 21 21
26 26 26 25 25 25 26 26 25 26 27 28 29 29 30 31 32 34 35 35 36 37 38 38 37 37 36 35 35 35 35 35 34 35 33 32 30 29 28 27 26 25 24
29 28 28 27 26 26 26 25 24 25 26 27 27 28 28 29 30 31 33 35 37 39 40 41 41 41 41 40 40 40 39 39 39 40 39 38 36 34 32 30 29 28 27
30 30 29 27 27 27 27 26 25 25 25 26 26 27 27 27 28 29 31 32 35 38 40 42 43 44 44 44 43 42 42 41 42 41 42 41 40 39 37 34 33 31 30
31 30 29 28 28 28 27 26 25 25 25 25 25 25 25 26 26 27 28 30 33 34 37 39 42 44 44 44 43 43 41 41 40 39 39 39 41 41 39 37 37 36 34
31 31 31 30 30 28 27 26 25 24 24 24 23 23 23 23 24 25 26 28 31 33 34 36 37 40 42 43 43 41 41 41 39 37 37 38 38 39 39 39 38 38 38
32 32 32 32 30 29 27 26 24 24 23 22 20 20 21 21 21 23 24 27 29 32 33 35 36 38 39 40 41 40 39 39 38 38 37 36 37 38 39 40 39 39 39
33 33 34 33 31 30 28 25 23 21 19 18 17 17 18 19 21 22 24 26 28 30 32 34 36 37 38 39 39 38 38 38 38 36 36 35 35 36 38 40 41 40 40
34 35 35 34 32 30 27 25 22 19 17 16 16 17 18 20 21 23 24 26 28 30 31 34 36 37 37 38 38 38 37 36 34 35 34 33 32 33 35 38 39 39 39
35 36 35 33 32 30 27 25 22 20 19 19 19 20 21 21 22 23 25 27 28 30 31 32 35 36 37 37 38 38 36 33 33 31 31 29 29 29 30 32 34 35 37
35 35 34 33 33 30 28 26 24 23 23 22 23 24 24 24 24 25 26 27 29 29 30 31 33 35 36 37 37 37 35 33 32 30 28 28 28 27 28 29 30 31 33
33 34 34 33 32 31 29 28 27 27 27 26 27 27 27 26 26 26 26 27 29 30 30 30 32 33 35 36 37 37 36 35 33 31 29 29 29 28 27 27 28 29 29
33 33 35 34 33 32 31 31 31 31 31 31 30 30 29 28 27 27 27 29 30 30 30 31 31 32 33 35 36 37 38 36 35 34 33 32 31 30 29 28 29 29 29
Wind_Direction
81 74 69 65 59 51 46 44 46 49 55 60 64 66 65 63 60 58 56 56 57 58 60 61 60 60 61 64 69 69 67 65 64 65 68 73 80 86 91 98 101 101 103
79 71 67 61 55 45 36 30 31 36 41 46 50 52 52 52 53 53 52 50 50 52 56 59 60 61 61 62 67 73 72 71 67 67 69 73 80 86 94 108 126 131 132
75 67 62 57 47 34 20 11 9 14 21 28 32 34 36 38 40 41 42 42 41 42 44 48 52 57 60 61 62 66 71 75 78 77 77 80 85 94 105 124 149 169 174
62 49 45 38 24 8 352 344 344 349 356 3 7 11 14 19 22 25 27 28 29 28 27 27 30 39 49 54 57 58 62 71 80 88 95 100 108 129 153 171 184 193 199
29 23 15 359 342 333 327 324 326 331 337 343 345 347 348 350 353 358 3 4 5 6 3 0 355 353 9 26 39 47 53 63 79 97 114 148 178 199 206 209 204 205 206
359 358 348 337 327 321 317 315 317 321 326 330 331 329 326 323 324 324 326 328 331 335 335 332 325 314 307 312 328 349 15 40 63 105 188 205 210 219 226 228 222 222 213
335 338 334 328 322 318 315 312 312 314 316 318 319 319 315 308 303 302 301 301 302 306 308 307 304 298 290 285 286 287 289 294 296 270 244 238 232 229 232 237 241 235 220
320 320 318 316 314 312 310 308 308 308 308 309 307 305 304 301 296 292 291 289 286 286 287 288 287 287 285 280 276 275 273 273 274 271 263 257 254 248 245 246 250 242 233
320 316 312 308 305 303 302 303 303 303 303 303 302 299 296 295 293 289 286 284 281 280 279 278 278 280 280 278 274 271 269 267 266 267 265 263 260 257 254 253 251 253 244
312 309 306 302 300 298 298 298 299 299 299 299 298 297 295 293 290 287 283 281 279 277 276 276 276 276 276 276 275 272 268 266 264 264 263 262 261 260 259 258 253 255 252
305 303 301 298 296 294 293 293 293 294 294 294 294 293 292 291 288 285 283 280 279 278 277 276 276 276 275 275 275 273 270 267 265 263 262 261 261 260 260 259 257 255 255
304 302 300 297 295 294 292 291 291 290 290 290 290 289 289 288 286 283 281 279 277 276 276 275 275 274 274 274 273 273 272 270 267 265 263 262 262 262 261 261 260 258 256
304 302 301 298 296 295 293 291 291 290 289 289 288 287 285 284 283 281 279 277 275 273 272 272 272 272 272 272 273 272 271 270 269 267 264 263 261 261 261 261 261 260 258
305 303 302 300 299 297 295 293 292 291 290 288 287 286 284 282 281 280 277 275 273 272 271 270 270 269 269 270 270 270 269 268 267 266 265 263 262 261 260 260 260 260 259
304 301 301 300 299 299 297 294 293 291 290 288 287 287 286 284 282 280 276 273 272 270 270 269 268 268 268 268 268 268 268 266 265 264 263 261 260 260 261 259 258 259 259
302 301 302 301 300 301 300 297 295 293 291 290 290 290 290 287 285 282 279 276 273 272 270 268 268 269 268 268 268 269 270 270 269 267 265 262 260 258 258 258 257 257 258
299 300 301 302 302 302 302 300 299 296 295 293 292 293 291 290 289 286 283 281 278 276 275 272 269 268 268 268 268 269 270 271 272 272 268 265 262 259 258 257 256 256 257
295 297 300 301 301 301 301 300 298 295 296 295 295 296 295 294 293 291 288 286 283 282 280 278 274 271 271 270 270 269 270 272 273 273 270 268 263 260 259 258 258 257 257
292 295 298 299 300 300 299 299 297 295 295 295 295 296 297 298 299 299 296 293 289 287 285 283 279 276 274 273 273 273 272 272 273 274 274 271 265 260 259 258 259 257 258
290 293 296 297 297 298 298 298 295 294 293 294 296 298 300 302 303 304 302 299 295 292 290 287 285 281 278 276 276 276 275 275 274 274 274 272 266 261 259 258 258 259 258
288 290 292 295 294 295 295 295 294 292 292 294 297 301 304 307 309 310 308 304 300 296 293 289 286 284 282 279 278 278 277 275 274 275 273 272 267 262 259 259 257 258 256
284 286 288 292 292 292 293 294 292 292 293 296 301 305 307 309 311 313 313 311 307 302 297 292 289 285 282 280 279 278 278 277 277 275 274 273 269 264 261 258 256 256 255
280 283 285 287 288 291 290 291 290 291 293 296 299 302 306 308 311 312 314 313 311 307 302 295 290 286 282 281 280 279 278 276 274 273 273 273 272 267 262 258 257 254 254
277 279 280 282 286 288 289 290 290 291 291 291 294 296 300 304 308 310 312 313 313 310 306 300 293 288 283 280 279 278 276 273 272 271 270 272 274 270 264 261 260 257 254
275 278 279 283 284 285 287 288 289 288 288 288 289 291 293 296 301 305 309 312 314 312 309 305 299 292 286 281 278 275 273 271 269 269 267 268 270 270 267 263 260 256 254
274 275 278 281 283 284 285 287 287 286 285 286 286 287 289 291 296 301 306 310 313 313 310 307 305 298 291 284 279 274 271 269 267 266 265 264 264 265 264 262 261 258 257
Height
5930 5929 5928 5928 5927 5927 5927 5926 5925 5923 5922 5921 5919 5918 5917 5916 5915 5914 5912 5911 5910 5909 5907 5906 5905 5903 5902 5901 5900 5900 5899 5898 5897 5896 5895 5895 5894 5894 5894 5894 5893 5893 5893
5930 5929 5928 5928 5928 5927 5927 5926 5925 5924 5922 5921 5920 5919 5918 5916 5915 5914 5913 5912 5911 5909 5908 5907 5906 5904 5903 5902 5901 5900 5899 5898 5898 5897 5896 5895 5895 5894 5894 5894 5894 5894 5894
5930 5929 5928 5928 5928 5927 5927 5926 5925 5924 5922 5921 5920 5919 5918 5916 5915 5914 5913 5912 5911 5910 5909 5908 5906 5905 5904 5902 5901 5900 5899 5899 5898 5897 5897 5896 5895 5895 5895 5894 5894 5894 5894
5930 5929 5928 5928 5928 5927 5926 5925 5924 5923 5922 5921 5919 5918 5917 5916 5915 5914 5913 5912 5911 5910 5909 5908 5906 5905 5904 5903 5902 5900 5900 5899 5898 5897 5897 5896 5896 5895 5895 5895 5894 5894 5894
5929 5928 5928 5928 5927 5926 5926 5925 5924 5922 5921 5920 5919 5918 5916 5915 5914 5913 5912 5912 5911 5910 5908 5907 5906 5905 5904 5903 5902 5901 5900 5899 5898 5897 5897 5896 5896 5895 5895 5895 5894 5894 5894
5928 5927 5927 5927 5926 5925 5925 5924 5923 5921 5920 5919 5918 5917 5916 5914 5913 5913 5912 5911 5910 5909 5908 5907 5905 5904 5903 5903 5902 5901 5900 5899 5898 5897 5897 5896 5896 5895 5895 5894 5894 5894 5893
5927 5926 5926 5925 5925 5924 5923 5922 5921 5920 5919 5918 5917 5916 5914 5913 5912 5911 5910 5909 5909 5908 5907 5906 5905 5903 5903 5902 5901 5900 5900 5899 5898 5897 5896 5896 5895 5895 5894 5894 5893 5893 5892
5926 5925 5924 5924 5923 5922 5921 5920 5919 5918 5917 5916 5915 5914 5913 5911 5910 5909 5909 5908 5907 5906 5905 5904 5903 5902 5901 5900 5900 5899 5899 5898 5897 5896 5896 5895 5894 5894 5893 5893 5892 5891 5891
5925 5924 5923 5922 5921 5920 5919 5918 5917 5916 5915 5914 5912 5911 5910 5909 5908 5907 5906 5905 5905 5904 5903 5902 5901 5900 5899 5899 5898 5897 5897 5896 5895 5895 5894 5894 5893 5893 5892 5891 5891 5890 5890
5923 5922 5921 5920 5919 5918 5917 5916 5915 5914 5912 5911 5910 5909 5908 5907 5905 5904 5903 5902 5902 5901 5900 5899 5899 5898 5897 5896 5896 5895 5894 5893 5893 5892 5892 5892 5891 5891 5890 5890 5889 5889 5888
5921 5920 5919 5917 5916 5915 5914 5913 5912 5910 5909 5908 5907 5906 5904 5903 5902 5901 5900 5899 5898 5897 5896 5896 5895 5894 5894 5893 5892 5891 5891 5890 5890 5889 5889 5889 5889 5888 5888 5888 5887 5887 5887
5918 5917 5915 5914 5913 5912 5910 5909 5908 5907 5905 5904 5902 5901 5900 5899 5897 5896 5895 5895 5894 5893 5892 5891 5891 5890 5889 5889 5888 5887 5887 5886 5886 5886 5886 5886 5885 5885 5885 5885 5884 5884 5884
5915 5914 5912 5911 5909 5908 5906 5905 5904 5902 5901 5899 5897 5896 5894 5893 5892 5891 5890 5889 5888 5887 5886 5886 5885 5885 5884 5884 5883 5882 5882 5882 5881 5881 5881 5881 5881 5881 5881 5881 5881 5881 5881
5912 5910 5908 5907 5905 5903 5902 5900 5899 5897 5895 5893 5891 5890 5889 5887 5886 5884 5884 5883 5882 5881 5880 5879 5879 5878 5878 5877 5877 5876 5876 5876 5875 5875 5876 5876 5876 5876 5876 5876 5877 5877 5877
5908 5906 5904 5902 5900 5899 5897 5895 5893 5891 5889 5887 5885 5884 5882 5881 5879 5878 5877 5875 5874 5874 5873 5872 5871 5871 5871 5870 5870 5869 5869 5869 5868 5868 5868 5869 5869 5870 5870 5871 5871 5871 5872
5903 5901 5899 5898 5895 5894 5892 5890 5888 5886 5884 5881 5879 5877 5876 5874 5872 5870 5869 5868 5867 5865 5864 5864 5863 5863 5862 5862 5862 5861 5861 5860 5860 5860 5860 5860 5861 5862 5862 5863 5864 5865 5865
5898 5896 5894 5892 5890 5888 5886 5884 5882 5880 5877 5875 5873 5871 5869 5867 5865 5863 5862 5861 5859 5857 5856 5855 5854 5853 5852 5852 5852 5852 5852 5852 5851 5851 5851 5851 5852 5853 5854 5855 5856 5857 5858
5893 5891 5889 5887 5885 5883 5881 5878 5876 5874 5871 5869 5867 5865 5862 5860 5858 5856 5855 5853 5851 5849 5848 5847 5845 5844 5842 5842 5841 5841 5841 5842 5842 5841 5841 5841 5842 5843 5845 5846 5847 5849 5850
5888 5885 5883 5881 5879 5877 5875 5872 5870 5868 5866 5863 5861 5859 5856 5854 5852 5850 5848 5846 5844 5842 5840 5838 5836 5835 5834 5833 5832 5831 5831 5832 5832 5831 5831 5831 5832 5833 5835 5836 5838 5840 5841
5882 5880 5877 5875 5872 5871 5869 5867 5864 5862 5860 5857 5855 5853 5851 5848 5846 5844 5841 5839 5836 5834 5832 5829 5828 5826 5825 5824 5823 5822 5822 5822 5822 5822 5822 5821 5822 5823 5825 5826 5828 5830 5832
5876 5873 5871 5869 5866 5865 5863 5861 5858 5856 5854 5852 5849 5847 5845 5842 5840 5837 5835 5832 5829 5826 5824 5822 5819 5818 5817 5815 5813 5813 5813 5813 5813 5813 5812 5812 5813 5814 5815 5816 5819 5821 5823
5869 5867 5865 5862 5860 5858 5856 5854 5852 5850 5848 5846 5844 5841 5839 5836 5834 5831 5828 5825 5822 5819 5816 5813 5811 5809 5808 5806 5805 5804 5804 5805 5805 5804 5804 5804 5804 5805 5806 5807 5809 5811 5813
5862 5860 5857 5856 5854 5852 5850 5848 5846 5844 5842 5840 5838 5835 5833 5830 5828 5825 5822 5818 5815 5811 5808 5805 5802 5800 5799 5797 5795 5795 5796 5797 5797 5796 5796 5796 5796 5796 5797 5798 5800 5802 5804
5854 5852 5850 5848 5847 5845 5843 5842 5840 5838 5836 5834 5832 5829 5827 5824 5821 5818 5815 5811 5808 5804 5800 5797 5794 5792 5790 5789 5787 5786 5787 5788 5788 5789 5789 5789 5789 5790 5790 5791 5792 5794 5796
5847 5845 5842 5841 5840 5838 5837 5835 5833 5831 5829 5828 5825 5823 5820 5818 5815 5812 5808 5805 5801 5797 5793 5789 5786 5783 5781 5779 5778 5778 5778 5779 5780 5781 5782 5782 5782 5783 5783 5784 5785 5786 5788
5839 5837 5835 5833 5832 5831 5829 5828 5826 5824 5822 5820 5818 5816 5813 5811 5808 5804 5801 5797 5793 5789 5786 5782 5778 5775 5772 5770 5769 5769 5769 5770 5771 5772 5774 5775 5775 5776 5776 5777 5778 5779 5780